Location: Drocourt
(49.0571°N, 1.7669°E)
Time: 20:09:31
(UTC+00:00)

S-56A Canister/Altair - Pass Details

Date: 15 April 2024
Orbit: 638 x 2488 km, 38.9° (Epoch: 20 May)

Event Time Altitude Azimuth Distance (km) Brightness Sun altitude
Rises 21:40:08 0° 265° (W) 4,248 11.8 -24.0°
Reaches altitude 10° 21:42:48 10° 259° (W) 3,504 11.2 -24.2°
Maximum altitude 21:51:25 44° 191° (SSW) 2,389 9.6 -25.0°
Enters shadow 21:54:27 38° 159° (SSE) 2,744 9.7 -25.3°
Drops below altitude 10° 22:03:29 10° 127° (SE) 4,859 - -26.1°
Sets 22:07:54 0° 122° (ESE) 6,022 - -26.4°
